Location: Deuil
(48.9767°N, 2.3272°E)
Time: 00:27:17
(UTC+00:00)

Cosmos 2228 - Pass Details

Date: 05 June 2022
Orbit: 586 x 617 km, 82.5° (Epoch: 03 July)

Event Time Altitude Azimuth Distance (km) Brightness Sun altitude
Rises 00:40:07 0° 354° (N) 2,879 7.9 -17.6°
Reaches altitude 10° 00:42:25 10° 360° (N) 1,965 6.8 -17.5°
Maximum altitude 00:46:38 49° 76° (ENE) 776 3.7 -17.4°
Enters shadow 00:49:16 21° 144° (SE) 1,362 4.5 -17.2°
